[ hide orbit diagram ]
For accurate long-term ephemerides, please instead use our Horizons system.This orbit viewer was implemented using two-body methods, and hence should not be used for determining accurate long-term trajectories (over several years or decades) or planetary encounter circumstances.
[ revert to old Java-based viewer ]
Orbital Elements at Epoch 2458600.5 (2019-Apr-27.0) TDB
Reference: JPL 12 (heliocentric ecliptic J2000)
Element | Value | Uncertainty (1-sigma) | Units |
e | .23569732649748 | 2.2773e-07 | |
a | 3.165780084872867 | 8.4952e-08 | au |
q | 2.419614182589367 | 7.0873e-07 | au |
i | 22.78287774242393 | 1.2312e-05 | deg |
node | 294.7894338218335 | 1.9423e-05 | deg |
peri | 73.28859317047886 | 7.9401e-05 | deg |
M | 158.5192944460461 | 5.0773e-05 | deg |
tp | 2457694.560552037737 (2016-Nov-02.06055204) | 0.00029081 | TDB |
period | 2057.403815769693 5.63 | 8.2814e-05 2.267e-07 | d yr |
n | .1749778032103634 | 7.0432e-09 | deg/d |
Q | 3.911945987156367 | 1.0498e-07 | au |
|
| | Orbit Determination Parameters
Additional Information
|
[ show covariance matrix ]
Physical Parameter Table
Parameter |
Symbol |
Value |
Units |
Sigma |
Reference |
Notes |
absolute magnitude |
H |
15.5 |
|
n/a |
MPO397653 |
|
|
469891 (2005 VG118) Discovered 2005-Nov-11 by LINEAR at Socorro |
Reference: | Last Updated: 2016-08-22 |
|
[ show close-approach data ]
|